DW2770 Weather Reports


Display with metric or nautical units.
time (UTC)temp
F
wind
direction
speed
MPH
gust
MPH
rain 1hr
in
rain 24hr
in
rain mn
in
humidity
%
barometer
mb
20260831050004 81 132 3.0 7.0 0.00 0.00 0.00 78 1014.2
20260831044511 80 109 3.0 7.0 0.00 0.00 0.00 79 1014.3
20260831043015 80 74 0.0 3.0 0.00 0.00 0.00 81 1014.4
20260831041530 80 72 0.0 0.0 0.00 0.00 0.00 81 1014.4
20260831040015 80 98 0.0 2.0 0.00 0.00 0.00 81 1014.5
20260831034508 80 79 0.0 1.0 0.00 0.00 0.00 81 1014.5
20260831033013 80 167 0.0 2.0 0.00 0.00 0.00 80 1014.5
20260831031520 81 173 0.0 2.0 0.00 0.00 0.00 80 1014.6
20260831030029 81 190 0.0 3.0 0.00 0.00 0.00 80 1014.8
20260831024506 81 191 0.0 3.0 0.00 0.00 0.00 79 1015.0
20260831023015 81 196 1.0 5.0 0.00 0.00 0.00 80 1015.2
20260831021538 81 194 1.0 6.0 0.00 0.00 0.00 80 1015.3
20260831020024 81 213 0.0 4.0 0.00 0.00 0.00 79 1015.4
20260831014531 82 189 1.0 4.0 0.00 0.00 0.00 79 1015.6
20260831013008 82 200 1.0 4.0 0.00 0.00 0.00 79 1015.6
20260831011514 82 210 3.0 6.0 0.00 0.00 0.00 78 1015.8
20260831010038 82 204 2.0 7.0 0.00 0.00 0.00 78 1015.7
20260831004528 83 219 3.0 7.0 0.00 0.00 0.00 77 1016.0
20260831003030 83 288 3.0 6.0 0.00 0.00 0.00 76 1015.9
20260831001523 83 250 5.0 8.0 0.00 0.00 0.00 78 1016.0
20260831000004 83 222 3.0 7.0 0.00 0.00 0.00 79 1015.9
20260830234503 83 240 4.0 8.0 0.00 0.00 0.00 80 1016.1
20260830233007 83 248 3.0 8.0 0.00 0.00 0.00 80 1016.3
20260830231512 83 229 4.0 9.0 0.00 0.00 0.00 80 1016.3
20260830230013 83 261 4.0 10.0 0.00 0.00 0.00 80 1016.4
20260830224504 82 215 6.0 9.0 0.00 0.00 0.00 80 1016.5
20260830223010 82 209 3.0 6.0 0.00 0.00 0.00 80 1016.1
20260830221506 82 225 3.0 7.0 0.00 0.00 0.00 80 1016.1
20260830220013 82 193 3.0 6.0 0.00 0.00 0.00 80 1016.0
20260830214518 82 232 3.0 6.0 0.00 0.00 0.00 80 1015.9
20260830213003 83 221 2.0 6.0 0.00 0.00 0.00 79 1015.8
20260830211515 83 253 2.0 4.0 0.00 0.00 0.00 79 1015.7
20260830210012 83 234 3.0 4.0 0.00 0.00 0.00 79 1015.7
20260830204514 83 236 1.0 5.0 0.00 0.00 0.00 79 1015.7
20260830203024 84 321 2.0 5.0 0.00 0.00 0.00 78 1015.7
20260830201505 84 305 2.0 6.0 0.00 0.00 0.00 78 1015.6
20260830200013 84 279 2.0 5.0 0.00 0.00 0.00 79 1015.6
20260830194514 84 309 3.0 6.0 0.00 0.00 0.00 79 1015.5
20260830193019 84 301 2.0 5.0 0.00 0.00 0.00 79 1015.5
20260830191528 84 301 1.0 6.0 0.00 0.00 0.00 80 1015.3
20260830190014 84 309 2.0 6.0 0.00 0.00 0.00 80 1015.3
20260830184515 84 259 2.0 6.0 0.00 0.00 0.00 81 1015.1
20260830183015 84 277 2.0 7.0 0.00 0.00 0.00 81 1014.9
20260830181535 84 273 3.0 5.0 0.00 0.00 0.00 80 1014.9
20260830180048 84 274 2.0 7.0 0.00 0.00 0.00 81 1014.6
20260830174517 85 298 3.0 6.0 0.00 0.00 0.00 80 1014.6
20260830173018 85 238 2.0 9.0 0.00 0.00 0.00 79 1014.5
20260830171518 85 311 2.0 8.0 0.00 0.00 0.00 79 1014.5
20260830170023 85 228 3.0 7.0 0.00 0.00 0.00 79 1014.5
20260830164528 86 288 3.0 8.0 0.00 0.00 0.00 79 1014.5
20260830163007 86 298 4.0 10.0 0.00 0.00 0.00 78 1014.6
20260830161512 86 222 2.0 8.0 0.00 0.00 0.00 78 1014.6
20260830160017 86 276 3.0 9.0 0.00 0.00 0.00 77 1014.6
20260830154531 86 258 3.0 9.0 0.00 0.00 0.00 78 1014.5
20260830153028 86 283 4.0 9.0 0.00 0.00 0.00 77 1014.5
20260830151518 86 230 5.0 10.0 0.00 0.00 0.00 77 1014.5
20260830150018 86 246 4.0 10.0 0.00 0.00 0.00 78 1014.5
20260830144527 87 327 4.0 11.0 0.00 0.00 0.00 78 1014.6
20260830143029 87 281 6.0 11.0 0.00 0.00 0.00 76 1014.6
20260830141529 87 308 5.0 11.0 0.00 0.00 0.00 74 1014.6
20260830140014 88 333 7.0 12.0 0.00 0.00 0.00 73 1014.6
20260830134536 88 317 6.0 13.0 0.00 0.00 0.00 69 1014.5
20260830133005 89 268 6.0 11.0 0.00 0.00 0.00 73 1014.6
20260830131509 90 286 3.0 10.0 0.00 0.00 0.00 74 1014.6
20260830130005 91 318 3.0 10.0 0.00 0.00 0.00 66 1014.6
20260830124503 92 346 3.0 10.0 0.00 0.00 0.00 60 1014.5
20260830123004 93 344 4.0 11.0 0.00 0.00 0.00 54 1014.4
20260830121504 94 274 3.0 8.0 0.00 0.00 0.00 48 1014.4
20260830120009 94 290 3.0 7.0 0.00 0.00 0.00 47 1014.3
20260830114504 94 300 3.0 8.0 0.00 0.00 0.00 46 1014.4
20260830113006 93 290 2.0 8.0 0.00 0.00 0.00 51 1014.3
20260830111504 94 262 4.0 8.0 0.00 0.00 0.00 48 1014.5
20260830110009 94 278 3.0 7.0 0.00 0.00 0.00 44 1014.5
20260830104514 94 310 2.0 8.0 0.00 0.00 0.00 43 1014.4
20260830103003 94 297 4.0 8.0 0.00 0.00 0.00 41 1014.5
20260830101504 94 302 3.0 9.0 0.00 0.00 0.00 41 1014.4
20260830100007 94 304 2.0 6.0 0.00 0.00 0.00 39 1014.3
20260830094510 93 5 2.0 6.0 0.00 0.00 0.00 44 1014.2
20260830093013 92 83 2.0 8.0 0.00 0.00 0.00 47 1014.3
20260830091504 93 94 5.0 7.0 0.00 0.00 0.00 46 1014.4
20260830090005 93 313 1.0 5.0 0.00 0.00 0.00 44 1014.6
20260830084509 93 60 2.0 6.0 0.00 0.00 0.00 41 1014.5
20260830083013 93 52 2.0 7.0 0.00 0.00 0.00 36 1014.2
20260830081524 93 39 4.0 7.0 0.00 0.00 0.00 36 1013.8
20260830080003 93 86 5.0 9.0 0.00 0.00 0.00 39 1013.8
20260830074515 93 60 3.0 7.0 0.00 0.00 0.00 37 1013.9
20260830073008 93 76 3.0 6.0 0.00 0.00 0.00 36 1013.8
20260830071514 92 235 1.0 3.0 0.00 0.00 0.00 35 1013.8
20260830070026 91 252 1.0 3.0 0.00 0.00 0.00 36 1013.8
20260830064503 90 290 1.0 4.0 0.00 0.00 0.00 37 1013.8
20260830063014 89 265 2.0 5.0 0.00 0.00 0.00 37 1013.9
20260830061525 89 250 3.0 6.0 0.00 0.00 0.00 36 1013.7
20260830060026 90 252 3.0 6.0 0.00 0.00 0.00 33 1013.7
20260830054533 89 226 1.0 2.0 0.00 0.00 0.00 31 1013.6
20260830053006 88 197 1.0 4.0 0.00 0.00 0.00 34 1013.6
20260830051533 87 236 2.0 4.0 0.00 0.00 0.00 35 1013.3